When you browse on this site, cookies collect data to enhance your experience and personalize the content and advertising you see.
Visit our Privacy Policy to learn more. By continuing to use the site, you agree to this use of cookies and data.

Hourly Weather Canberra

Today, 27 September, Sunday

Time Temperature Precipitation Wind Pressure Humidity
00:00 +1°C° 0 mm 3 mps 709 mmHg 90%
01:00 +1°C° 0 mm 3 mps 709 mmHg 91%
02:00 +1°C° 0 mm 3 mps 709 mmHg 93%
03:00 +1°C° 0 mm 2 mps 709 mmHg 94%
04:00 +1°C° 0 mm 2 mps 709 mmHg 96%
05:00 +2°C° 0 mm 2 mps 709 mmHg 93%
06:00 +3°C° 0 mm 2 mps 710 mmHg 91%
07:00 +5°C° 0 mm 1 mps 711 mmHg 88%
08:00 +7°C° 0 mm 1 mps 712 mmHg 76%
09:00 +9°C° 0 mm 1 mps 713 mmHg 63%
10:00 +12°C° 0 mm 1 mps 713 mmHg 56%
11:00 +12°C° 0 mm 1 mps 713 mmHg 54%
12:00 +13°C° 0 mm 2 mps 713 mmHg 53%
13:00 +13°C° 0 mm 2 mps 713 mmHg 52%
14:00 +13°C° 0.1 mm 2 mps 713 mmHg 55%
15:00 +13°C° 0.1 mm 2 mps 713 mmHg 59%
16:00 +12°C° 0.1 mm 2 mps 712 mmHg 62%
17:00 +9°C° 0 mm 2 mps 713 mmHg 71%
18:00 +8°C° 0 mm 1 mps 714 mmHg 81%
19:00 +6°C° 0 mm 1 mps 714 mmHg 90%
20:00 +5°C° 0 mm 1 mps 714 mmHg 92%
21:00 +4°C° 0 mm 1 mps 715 mmHg 93%
22:00 +4°C° 0 mm 1 mps 715 mmHg 94%
23:00 +3°C° 0 mm 1 mps 715 mmHg 94%

Tomorrow, 28 September, Monday

Time Temperature Precipitation Wind Pressure Humidity
00:00 +3°C° 0 mm 1 mps 715 mmHg 95%
01:00 +2°C° 0 mm 0 mps 715 mmHg 95%
02:00 +1°C° 0 mm 0 mps 715 mmHg 95%
03:00 +1°C° 0 mm 0 mps 714 mmHg 95%
04:00 +1°C° 0 mm 0 mps 714 mmHg 96%
05:00 +1°C° 0 mm 0 mps 715 mmHg 94%
06:00 +2°C° 0 mm 0 mps 715 mmHg 93%
07:00 +3°C° 0 mm 0 mps 716 mmHg 91%
08:00 +6°C° 0 mm 0 mps 716 mmHg 80%
09:00 +10°C° 0 mm 1 mps 716 mmHg 69%
10:00 +13°C° 0 mm 1 mps 716 mmHg 58%
11:00 +14°C° 0 mm 2 mps 715 mmHg 54%
12:00 +15°C° 0 mm 2 mps 715 mmHg 51%
13:00 +16°C° 0 mm 2 mps 715 mmHg 47%
14:00 +16°C° 0 mm 3 mps 714 mmHg 51%
15:00 +14°C° 0 mm 3 mps 714 mmHg 56%
16:00 +14°C° 0 mm 3 mps 714 mmHg 60%
17:00 +12°C° 0 mm 2 mps 714 mmHg 71%
18:00 +9°C° 0 mm 2 mps 715 mmHg 81%
19:00 +8°C° 0 mm 1 mps 715 mmHg 92%
20:00 +7°C° 0 mm 1 mps 715 mmHg 93%
21:00 +6°C° 0 mm 1 mps 715 mmHg 94%
22:00 +6°C° 0 mm 1 mps 715 mmHg 95%
23:00 +5°C° 0 mm 1 mps 715 mmHg 95%

Day after tomorrow, 29 September, Tuesday

Time Temperature Precipitation Wind Pressure Humidity
00:00 +5°C° 0 mm 1 mps 715 mmHg 96%
01:00 +5°C° 0 mm 1 mps 715 mmHg 96%
02:00 +4°C° 0 mm 1 mps 715 mmHg 96%
03:00 +4°C° 0 mm 1 mps 714 mmHg 96%
04:00 +4°C° 0 mm 1 mps 714 mmHg 97%
05:00 +5°C° 0 mm 1 mps 714 mmHg 95%
06:00 +5°C° 0 mm 0 mps 715 mmHg 93%
07:00 +6°C° 0 mm 0 mps 716 mmHg 92%
08:00 +9°C° 0 mm 0 mps 715 mmHg 81%
09:00 +13°C° 0 mm 1 mps 715 mmHg 70%
10:00 +15°C° 0 mm 1 mps 715 mmHg 59%
11:00 +16°C° 0 mm 2 mps 715 mmHg 55%
12:00 +17°C° 0 mm 2 mps 714 mmHg 52%
13:00 +18°C° 0 mm 3 mps 714 mmHg 48%
14:00 +17°C° 0 mm 3 mps 713 mmHg 51%
15:00 +17°C° 0 mm 3 mps 713 mmHg 54%
16:00 +16°C° 0 mm 2 mps 712 mmHg 57%
17:00 +14°C° 0 mm 2 mps 712 mmHg 67%
18:00 +12°C° 0 mm 1 mps 712 mmHg 77%
19:00 +9°C° 0 mm 0 mps 712 mmHg 86%
20:00 +8°C° 0 mm 0 mps 712 mmHg 88%
21:00 +9°C° 0 mm 1 mps 712 mmHg 89%
22:00 +8°C° 0 mm 1 mps 713 mmHg 90%
23:00 +8°C° 0 mm 1 mps 712 mmHg 90%

30 September, Wednesday

Time Temperature Precipitation Wind Pressure Humidity
00:00 +7°C° 0 mm 0 mps 711 mmHg 91%
01:00 +7°C° 0 mm 0 mps 711 mmHg 91%
02:00 +7°C° 0 mm 0 mps 710 mmHg 90%
03:00 +7°C° 0 mm 0 mps 710 mmHg 88%
04:00 +8°C° 0 mm 0 mps 710 mmHg 87%
05:00 +8°C° 0 mm 0 mps 710 mmHg 85%
06:00 +9°C° 0 mm 0 mps 710 mmHg 82%
07:00 +10°C° 0 mm 1 mps 710 mmHg 79%
08:00 +10°C° 1 mm 1 mps 710 mmHg 85%
09:00 +9°C° 1 mm 2 mps 710 mmHg 91%
10:00 +8°C° 1 mm 3 mps 710 mmHg 97%
11:00 +8°C° 0.4 mm 3 mps 709 mmHg 97%
12:00 +8°C° 0.4 mm 4 mps 709 mmHg 96%
13:00 +8°C° 0.4 mm 4 mps 708 mmHg 96%
14:00 +8°C° 0.3 mm 4 mps 708 mmHg 96%
15:00 +10°C° 0.3 mm 4 mps 707 mmHg 96%
16:00 +10°C° 0.3 mm 3 mps 707 mmHg 96%
17:00 +10°C° 0 mm 3 mps 707 mmHg 97%
18:00 +10°C° 0 mm 2 mps 707 mmHg 97%
19:00 +10°C° 0 mm 2 mps 707 mmHg 98%
20:00 +10°C° 0.3 mm 2 mps 707 mmHg 98%
21:00 +10°C° 0.3 mm 2 mps 707 mmHg 98%
22:00 +10°C° 0.3 mm 2 mps 707 mmHg 98%
23:00 +10°C° 0.8 mm 2 mps 707 mmHg 98%

1 October, Thursday

Time Temperature Precipitation Wind Pressure Humidity
00:00 +11°C° 0.8 mm 1 mps 707 mmHg 98%
01:00 +11°C° 0.8 mm 1 mps 706 mmHg 99%
02:00 +11°C° 0.3 mm 1 mps 706 mmHg 99%
03:00 +11°C° 0.3 mm 1 mps 706 mmHg 99%
04:00 +11°C° 0.3 mm 1 mps 706 mmHg 99%
05:00 +11°C° 0.3 mm 1 mps 707 mmHg 98%
06:00 +12°C° 0.3 mm 1 mps 707 mmHg 98%
07:00 +12°C° 0.3 mm 1 mps 707 mmHg 98%
08:00 +13°C° 0.1 mm 1 mps 707 mmHg 91%
09:00 +15°C° 0.1 mm 1 mps 708 mmHg 84%
10:00 +16°C° 0.1 mm 1 mps 708 mmHg 77%
11:00 +17°C° 0.3 mm 2 mps 708 mmHg 70%
12:00 +18°C° 0.3 mm 3 mps 708 mmHg 63%
13:00 +19°C° 0.3 mm 3 mps 708 mmHg 57%
14:00 +19°C° 0.1 mm 4 mps 708 mmHg 57%
15:00 +19°C° 0.1 mm 4 mps 708 mmHg 58%
16:00 +17°C° 0.1 mm 5 mps 708 mmHg 59%
17:00 +15°C° 0 mm 4 mps 709 mmHg 67%
18:00 +13°C° 0 mm 4 mps 709 mmHg 75%
19:00 +11°C° 0 mm 3 mps 710 mmHg 83%
20:00 +10°C° 0 mm 3 mps 710 mmHg 86%
21:00 +9°C° 0 mm 2 mps 710 mmHg 90%
22:00 +8°C° 0 mm 2 mps 711 mmHg 94%
23:00 +8°C° 0 mm 2 mps 711 mmHg 94%

2 October, Friday

Time Temperature Precipitation Wind Pressure Humidity
00:00 +8°C° 0 mm 1 mps 711 mmHg 94%
01:00 +8°C° 0 mm 1 mps 711 mmHg 95%
02:00 +7°C° 0 mm 1 mps 711 mmHg 95%
03:00 +7°C° 0 mm 1 mps 711 mmHg 95%
04:00 +7°C° 0 mm 1 mps 711 mmHg 95%
05:00 +8°C° 0 mm 1 mps 712 mmHg 92%
06:00 +9°C° 0 mm 1 mps 712 mmHg 90%
07:00 +9°C° 0 mm 1 mps 713 mmHg 88%
08:00 +12°C° 0 mm 1 mps 713 mmHg 78%
09:00 +15°C° 0 mm 2 mps 714 mmHg 69%
10:00 +18°C° 0 mm 2 mps 714 mmHg 60%
11:00 +19°C° 0 mm 3 mps 714 mmHg 56%
12:00 +20°C° 0 mm 3 mps 714 mmHg 53%
13:00 +22°C° 0 mm 4 mps 714 mmHg 50%
14:00 +21°C° 0 mm 4 mps 714 mmHg 53%
15:00 +21°C° 0 mm 4 mps 713 mmHg 55%
16:00 +20°C° 0 mm 4 mps 713 mmHg 58%
17:00 +18°C° 0 mm 4 mps 713 mmHg 68%
18:00 +16°C° 0 mm 3 mps 714 mmHg 78%
19:00 +13°C° 0 mm 2 mps 714 mmHg 88%
20:00 +12°C° 0 mm 2 mps 714 mmHg 90%
21:00 +11°C° 0 mm 1 mps 714 mmHg 91%
22:00 +10°C° 0 mm 1 mps 714 mmHg 93%
23:00 +10°C° 0 mm 1 mps 714 mmHg 92%
Show more